FW4092 Weather Reports


time (UTC)temp
F
wind
direction
speed
knots
gust
knots
rain 1hr
in
rain 24hr
in
rain mn
in
humidity
%
barometer
mb
20260904085904 47 70 0.0 0.9 0.00 0.00 0.00 75 1008.0
20260904085403 48 70 0.0 0.9 0.00 0.00 0.00 75 1008.0
20260904085135 47 70 0.0 0.0 0.00 0.00 0.00 75 1008.0
20260904084403 47 70 0.0 0.0 0.00 0.00 0.00 75 1008.0
20260904083900 47 70 0.0 0.0 0.00 0.00 0.00 75 1008.0
20260904083405 47 70 0.0 0.0 0.00 0.00 0.00 75 1007.9
20260904082924 48 70 0.0 0.0 0.00 0.00 0.00 75 1007.9
20260904082920 48 70 0.0 0.0 0.00 0.00 0.00 75 1007.9
20260904081859 48 70 0.0 0.0 0.00 0.00 0.00 75 1007.9
20260904081400 48 70 0.0 0.0 0.00 0.00 0.00 75 1007.9
20260904080900 48 70 0.0 0.0 0.00 0.00 0.00 75 1007.9
20260904080358 48 70 0.0 0.0 0.00 0.00 0.00 76 1007.9
20260904075859 48 70 0.0 0.0 0.00 0.00 0.00 75 1007.9
20260904075359 48 70 0.0 0.9 0.00 0.00 0.00 76 1007.8
20260904074857 48 70 0.0 0.9 0.00 0.00 0.00 75 1007.9
20260904074355 48 70 0.0 0.0 0.00 0.00 0.00 75 1007.9
20260904073847 48 70 0.0 0.0 0.00 0.00 0.00 75 1007.8
20260904073340 49 70 0.0 0.9 0.00 0.00 0.00 75 1007.8
20260904072834 49 70 0.0 0.9 0.00 0.00 0.00 74 1007.7
20260904072327 49 70 0.0 2.6 0.00 0.00 0.00 74 1007.5
20260904071823 50 70 0.0 2.6 0.00 0.00 0.00 73 1007.5
20260904071316 50 331 0.0 0.9 0.00 0.00 0.00 73 1007.7
20260904070810 50 330 0.0 0.9 0.00 0.00 0.00 72 1007.7
20260904070305 50 330 0.0 0.9 0.00 0.00 0.00 72 1007.7
20260904070033 49 330 0.0 0.0 0.00 0.00 0.00 71 1007.8
20260904065255 49 330 0.0 0.0 0.00 0.00 0.00 72 1007.8
20260904064747 49 330 0.0 0.9 0.00 0.00 0.00 72 1007.8
20260904064243 49 330 0.0 0.0 0.00 0.00 0.00 72 1007.8
20260904063736 49 330 0.0 0.0 0.00 0.00 0.00 71 1007.7
20260904063458 49 330 0.0 0.0 0.00 0.00 0.00 71 1007.7
20260904062723 49 330 0.0 0.0 0.00 0.00 0.00 71 1007.7
20260904062217 49 330 0.0 0.0 0.00 0.00 0.00 71 1007.7
20260904061712 49 331 0.0 0.0 0.00 0.00 0.00 71 1007.7
20260904061208 50 331 0.0 0.0 0.00 0.00 0.00 70 1007.5
20260904060937 50 331 0.0 0.0 0.00 0.00 0.00 71 1007.5
20260904060154 50 331 0.0 0.0 0.00 0.00 0.00 71 1007.5
20260904055651 50 331 0.0 0.0 0.00 0.00 0.00 70 1007.7
20260904055143 51 331 0.0 0.0 0.00 0.00 0.00 70 1007.5
20260904054636 51 331 0.0 0.0 0.00 0.00 0.00 70 1007.5
20260904054130 51 331 0.0 0.0 0.00 0.00 0.00 70 1007.7
20260904053623 51 331 0.0 0.0 0.00 0.00 0.00 70 1007.7
20260904053121 51 331 0.0 0.0 0.00 0.00 0.00 69 1007.8
20260904052843 51 331 0.0 0.0 0.00 0.00 0.00 69 1007.8
20260904052110 51 331 0.0 0.0 0.00 0.00 0.00 69 1007.7
20260904051833 51 331 0.0 0.0 0.00 0.00 0.00 68 1007.7
20260904051110 51 331 0.0 1.7 0.00 0.00 0.00 68 1007.8
20260904051102 51 331 0.0 1.7 0.00 0.00 0.00 68 1007.8
20260904050041 52 330 0.9 3.5 0.00 0.00 0.00 68 1007.7
20260904045536 52 330 1.7 3.5 0.00 0.00 0.00 67 1007.7
20260904045030 52 329 1.7 5.2 0.00 0.01 0.00 67 1007.7
20260904044524 52 332 1.7 5.2 0.00 0.01 0.00 66 1007.4
20260904044018 52 338 1.7 6.1 0.00 0.01 0.00 66 1007.4
20260904043511 52 332 1.7 6.1 0.00 0.01 0.00 66 1007.5
20260904043021 53 311 2.6 5.2 0.00 0.01 0.00 66 1007.4
20260904043016 53 315 2.6 6.1 0.00 0.01 0.00 66 1007.4
20260904041955 53 337 1.7 5.2 0.00 0.01 0.00 65 1007.4
20260904041448 53 318 2.6 6.1 0.00 0.01 0.00 65 1007.4
20260904041215 53 315 2.6 6.1 0.00 0.01 0.00 65 1007.4
20260904040436 53 308 2.6 6.1 0.00 0.01 0.00 64 1007.4
20260904035930 53 290 3.5 7.8 0.00 0.01 0.00 64 1007.3
20260904035654 53 310 3.5 9.6 0.00 0.01 0.00 63 1007.4
20260904034918 53 307 2.6 9.6 0.00 0.01 0.00 63 1007.5
20260904034412 54 313 3.5 7.8 0.00 0.01 0.00 63 1007.4
20260904034130 54 309 3.5 7.8 0.00 0.01 0.00 62 1007.3
20260904033400 54 317 3.5 7.8 0.00 0.01 0.00 62 1007.2
20260904032854 54 284 2.6 8.7 0.00 0.01 0.00 62 1007.1
20260904032348 54 258 1.7 8.7 0.00 0.01 0.00 62 1006.9
20260904032116 54 314 1.7 6.1 0.00 0.01 0.00 61 1006.9
20260904031342 55 298 2.6 8.7 0.00 0.01 0.00 61 1006.6
20260904030842 55 307 3.5 10.4 0.00 0.01 0.00 61 1006.6
20260904030342 55 348 4.3 10.4 0.00 0.01 0.00 60 1006.6
20260904025841 55 321 4.3 8.7 0.00 0.01 0.00 59 1006.6
20260904025614 55 309 4.3 8.7 0.00 0.01 0.00 59 1006.6
20260904024841 55 292 3.5 8.7 0.00 0.01 0.00 58 1006.6
20260904024342 56 304 3.5 8.7 0.00 0.01 0.00 57 1006.6
20260904024123 56 309 3.5 8.7 0.00 0.01 0.00 56 1006.5
20260904023403 56 301 3.5 8.7 0.00 0.01 0.00 55 1006.5
20260904023359 56 324 3.5 8.7 0.00 0.01 0.00 56 1006.5
20260904022343 56 318 3.5 7.0 0.00 0.01 0.00 55 1006.4
20260904021842 56 342 3.5 7.8 0.00 0.01 0.00 55 1006.4
20260904021403 57 330 2.6 7.8 0.00 0.01 0.00 54 1006.4
20260904021357 57 325 2.6 7.8 0.00 0.01 0.00 55 1006.4
20260904020343 57 317 3.5 7.8 0.00 0.01 0.00 54 1006.4
20260904015841 57 298 3.5 7.8 0.00 0.01 0.00 53 1006.4
20260904015343 58 260 2.6 7.8 0.00 0.01 0.00 53 1006.4
20260904014841 58 312 2.6 8.7 0.00 0.01 0.00 52 1006.2
20260904014335 58 319 2.6 8.7 0.00 0.01 0.00 51 1006.4
20260904013829 58 340 1.7 7.8 0.00 0.01 0.00 50 1006.1
20260904013323 59 323 1.7 5.2 0.00 0.01 0.00 49 1006.1
20260904012816 59 326 1.7 7.0 0.00 0.01 0.00 48 1006.1
20260904012309 59 295 2.6 7.0 0.00 0.01 0.00 47 1006.1
20260904011803 60 325 2.6 7.0 0.00 0.02 0.00 47 1006.0
20260904011258 60 328 1.7 7.0 0.00 0.02 0.00 48 1006.0
20260904010751 60 331 0.9 7.0 0.00 0.02 0.00 47 1006.1
20260904010245 60 333 0.9 3.5 0.00 0.03 0.00 47 1006.1
20260904005739 60 338 1.7 4.3 0.00 0.04 0.00 47 1006.0
20260904005503 60 344 1.7 4.3 0.00 0.06 0.00 46 1006.0
20260904004727 61 347 1.7 3.5 0.00 0.07 0.00 45 1006.0
20260904004221 61 329 1.7 3.5 0.00 0.08 0.00 45 1006.0
20260904003719 62 301 0.9 3.5 0.00 0.08 0.00 45 1006.0
20260904003210 62 261 0.9 2.6 0.00 0.09 0.00 44 1006.1
20260904002702 63 148 0.0 1.7 0.00 0.09 0.00 43 1006.0
20260904002433 63 148 0.0 1.7 0.00 0.09 0.00 44 1006.0
20260904001651 62 148 0.0 2.6 0.00 0.09 0.00 45 1006.0
20260904001146 62 148 0.9 2.6 0.00 0.09 0.00 46 1006.1
20260904000639 62 166 0.9 4.3 0.00 0.09 0.00 45 1006.0
20260904000133 62 171 0.9 4.3 0.00 0.09 0.00 43 1006.1
20260903235628 63 174 0.9 3.5 0.00 0.10 0.00 45 1006.1
20260903235121 63 179 0.9 4.3 0.00 0.10 0.00 45 1006.1
20260903234619 64 149 0.9 4.3 0.00 0.11 0.00 43 1006.1
20260903234109 64 146 1.7 6.1 0.00 0.11 0.00 44 1006.1
20260903233603 64 241 0.9 6.1 0.00 0.11 0.00 43 1006.1
20260903233110 64 161 1.7 5.2 0.00 0.11 0.00 46 1006.1
20260903233105 64 166 0.9 5.2 0.00 0.11 0.00 44 1006.1
20260903232301 64 132 1.7 7.0 0.00 0.11 0.00 46 1006.2
20260903232049 64 132 1.7 7.0 0.00 0.11 0.00 46 1006.2
20260903231540 64 123 0.9 7.0 0.00 0.11 0.00 46 1006.2
20260903231038 63 109 0.9 3.5 0.00 0.11 0.00 48 1006.2
20260903230537 62 74 0.9 5.2 0.00 0.11 0.00 46 1006.4
20260903230320 62 76 1.7 5.2 0.00 0.11 0.00 47 1006.5
20260903225538 62 94 1.7 7.0 0.00 0.11 0.00 48 1006.6
20260903225038 62 146 2.6 7.0 0.00 0.11 0.00 47 1006.6
20260903224817 62 145 2.6 7.0 0.00 0.11 0.00 48 1006.7
20260903224314 62 114 1.7 7.0 0.00 0.11 0.00 47 1006.8
20260903223543 62 130 0.9 5.2 0.00 0.12 0.00 51 1006.9
20260903223038 61 84 0.9 3.5 0.00 0.12 0.00 51 1006.9
20260903222805 61 71 0.9 5.2 0.00 0.12 0.00 52 1007.0
20260903222036 60 42 0.9 5.2 0.00 0.12 0.00 54 1007.1
20260903221535 60 25 0.9 4.3 0.00 0.12 0.00 52 1007.1
20260903221036 60 26 0.9 4.3 0.00 0.12 0.00 51 1007.2
20260903220533 60 74 0.9 3.5 0.00 0.12 0.00 52 1007.2
20260903220033 60 60 0.9 5.2 0.00 0.12 0.00 52 1007.4
20260903215534 59 59 1.7 5.2 0.00 0.12 0.00 54 1007.5
20260903215032 59 92 1.7 5.2 0.00 0.12 0.00 53 1007.5
20260903214531 59 76 0.9 5.2 0.00 0.12 0.00 54 1007.8
20260903214039 59 66 0.9 3.5 0.00 0.12 0.00 55 1007.8
20260903213543 58 306 1.7 4.3 0.00 0.12 0.00 54 1007.8
20260903213039 58 316 1.7 4.3 0.00 0.12 0.00 56 1007.8
20260903212533 58 298 1.7 3.5 0.00 0.12 0.00 55 1007.9
20260903212031 58 317 0.9 3.5 0.00 0.12 0.00 55 1007.9
20260903211538 58 315 1.7 3.5 0.00 0.12 0.00 56 1007.8
20260903211031 58 320 1.7 4.3 0.00 0.12 0.00 55 1007.9
20260903210530 58 17 0.9 4.3 0.00 0.12 0.00 58 1007.8
20260903210031 58 57 1.7 4.3 0.00 0.12 0.00 56 1007.8
20260903205810 57 355 1.7 4.3 0.00 0.12 0.00 57 1007.7
20260903205031 57 5 0.9 4.3 0.00 0.12 0.00 56 1007.8
20260903204537 57 307 0.9 4.3 0.00 0.12 0.00 53 1007.8
20260903204031 57 5 0.0 2.6 0.00 0.12 0.00 58 1007.8
20260903203534 57 330 0.9 3.5 0.00 0.12 0.00 59 1007.8
20260903203029 57 327 1.7 4.3 0.00 0.12 0.00 57 1007.9
20260903202530 57 327 1.7 4.3 0.00 0.12 0.00 59 1008.0
20260903202032 57 340 1.7 4.3 0.00 0.12 0.00 60 1008.0
20260903201528 57 26 0.9 2.6 0.00 0.12 0.00 62 1008.1
20260903201259 56 26 0.9 2.6 0.00 0.12 0.00 61 1008.1
20260903200528 56 30 0.9 3.5 0.00 0.12 0.00 62 1008.0
20260903200016 56 29 1.7 4.3 0.00 0.12 0.00 64 1008.1
20260903195510 56 0 1.7 4.3 0.00 0.12 0.00 64 1008.1
20260903195004 56 5 1.7 3.5 0.00 0.12 0.00 64 1008.1
20260903194732 55 18 1.7 3.5 0.00 0.12 0.00 63 1008.1
20260903193955 55 34 1.7 3.5 0.00 0.12 0.00 65 1008.2
20260903193454 55 336 1.7 4.3 0.00 0.12 0.00 64 1008.2
20260903192954 55 343 1.7 4.3 0.00 0.12 0.00 63 1008.2
20260903192454 55 22 1.7 3.5 0.00 0.13 0.00 63 1008.1
20260903192238 55 36 1.7 4.3 0.00 0.13 0.00 66 1008.3
20260903191456 55 38 1.7 5.2 0.00 0.14 0.00 66 1008.3
20260903191237 55 298 2.6 5.2 0.00 0.14 0.00 64 1008.3
20260903190457 55 338 2.6 4.3 0.00 0.14 0.00 64 1008.2
20260903185952 54 313 2.6 5.2 0.00 0.14 0.00 65 1008.2
20260903185453 54 344 2.6 7.0 0.00 0.14 0.00 65 1008.3
20260903184953 54 342 2.6 7.0 0.00 0.14 0.00 65 1008.3
20260903184727 54 325 2.6 7.0 0.00 0.14 0.00 65 1008.2
20260903183953 54 329 1.7 7.0 0.00 0.14 0.00 65 1008.3
20260903183452 54 346 1.7 4.3 0.00 0.14 0.00 65 1008.3
20260903182953 54 24 0.9 4.3 0.00 0.14 0.00 68 1008.4
20260903182452 54 322 0.9 3.5 0.00 0.14 0.00 68 1008.4
20260903181950 54 26 0.0 2.6 0.00 0.14 0.00 67 1008.4
20260903181448 53 27 0.9 3.5 0.00 0.14 0.00 68 1008.4
20260903180942 53 19 0.9 3.5 0.00 0.14 0.00 70 1008.4
20260903180725 53 348 0.9 3.5 0.00 0.14 0.00 70 1008.4
20260903175931 53 349 1.7 4.3 0.00 0.14 0.00 70 1008.4
20260903175423 52 311 0.9 4.3 0.00 0.14 0.00 71 1008.5
20260903174918 52 321 0.9 2.6 0.00 0.14 0.00 73 1008.5
20260903174653 52 322 0.9 2.6 0.00 0.14 0.00 74 1008.6
20260903173909 51 321 0.9 2.6 0.00 0.14 0.00 73 1008.6
20260903173636 51 321 0.9 3.5 0.00 0.14 0.00 75 1008.5
20260903172854 51 313 0.9 3.5 0.00 0.14 0.00 75 1008.5
20260903172348 51 309 0.9 3.5 0.00 0.14 0.00 76 1008.4
20260903171842 51 313 1.7 3.5 0.00 0.14 0.00 76 1008.5
20260903171336 51 310 1.7 3.5 0.00 0.14 0.00 76 1008.5
20260903170836 51 314 1.7 3.5 0.00 0.14 0.00 78 1008.4
20260903170336 51 331 1.7 3.5 0.00 0.14 0.00 78 1008.5
20260903165847 51 340 0.9 3.5 0.00 0.14 0.00 78 1008.5
20260903165345 51 305 0.9 3.5 0.00 0.14 0.00 77 1008.5
20260903164836 51 308 0.9 3.5 0.00 0.14 0.00 77 1008.5
20260903164336 51 291 0.9 3.5 0.00 0.14 0.00 77 1008.5
20260903163836 51 163 0.9 3.5 0.00 0.14 0.00 77 1008.5
20260903163336 51 142 0.9 3.5 0.00 0.14 0.00 78 1008.4
20260903162838 51 138 0.9 3.5 0.00 0.14 0.00 78 1008.3
20260903162336 50 134 0.9 2.6 0.00 0.14 0.00 80 1008.3
20260903161836 50 133 0.0 2.6 0.00 0.14 0.00 80 1008.2
20260903161334 49 130 0.9 2.6 0.00 0.14 0.00 81 1008.3
20260903160832 49 130 0.9 3.5 0.00 0.14 0.00 82 1008.4
20260903160334 49 129 0.9 3.5 0.00 0.14 0.00 83 1008.4
20260903160118 49 128 0.9 3.5 0.00 0.14 0.00 83 1008.4
20260903155344 48 124 1.7 3.5 0.00 0.14 0.00 83 1008.5
20260903154841 48 123 0.9 3.5 0.00 0.14 0.00 82 1008.5
20260903154325 48 121 0.9 3.5 0.00 0.14 0.00 83 1008.6
20260903153820 47 121 0.0 1.7 0.00 0.14 0.00 83 1008.6
20260903153314 47 121 0.0 1.7 0.00 0.14 0.00 85 1008.7
20260903152815 47 123 0.0 1.7 0.00 0.14 0.00 86 1008.7
20260903152311 46 123 0.0 0.0 0.00 0.14 0.00 86 1008.5
20260903151820 46 123 0.0 0.0 0.00 0.14 0.00 86 1008.5
20260903151317 46 123 0.0 2.6 0.00 0.14 0.00 86 1008.6
20260903150818 46 123 0.9 2.6 0.00 0.14 0.00 87 1008.6
20260903150319 45 128 0.0 1.7 0.00 0.14 0.00 86 1008.6
20260903145817 45 130 0.0 0.9 0.00 0.14 0.00 86 1008.5
20260903145316 45 130 0.0 1.7 0.00 0.14 0.00 86 1008.6
20260903144818 45 130 0.0 1.7 0.00 0.14 0.00 87 1008.6
20260903144544 45 130 0.0 0.0 0.00 0.14 0.00 87 1008.4
20260903143819 45 130 0.0 0.0 0.00 0.14 0.00 87 1008.4
20260903143312 44 130 0.0 0.0 0.00 0.14 0.00 87 1008.5
20260903142833 44 130 0.0 2.6 0.00 0.14 0.00 87 1008.5
20260903142829 44 130 0.0 0.0 0.00 0.14 0.00 87 1008.5
20260903142041 44 130 0.9 2.6 0.00 0.14 0.00 88 1008.5
20260903141312 44 130 0.9 4.3 0.00 0.14 0.00 88 1008.5
20260903140811 44 130 0.9 4.3 0.00 0.14 0.00 87 1008.5
20260903140310 44 133 0.9 3.5 0.00 0.14 0.00 87 1008.5
20260903140026 45 132 1.7 4.3 0.00 0.14 0.00 87 1008.4
20260903135808 45 132 1.7 4.3 0.00 0.14 0.00 87 1008.4
20260903135306 45 131 1.7 6.1 0.00 0.14 0.00 87 1008.3
20260903135025 45 136 1.7 6.1 0.00 0.14 0.00 87 1008.3
20260903134247 45 141 0.9 5.2 0.00 0.14 0.00 87 1008.3
20260903133743 45 134 0.0 5.2 0.00 0.14 0.00 87 1008.3
20260903133235 45 134 0.0 0.0 0.00 0.14 0.00 87 1008.3
20260903132729 45 134 0.0 1.7 0.00 0.14 0.00 88 1008.4
20260903132223 44 135 0.9 2.6 0.00 0.14 0.00 89 1008.3
20260903131719 44 136 0.9 2.6 0.00 0.14 0.00 89 1008.4
20260903131211 44 136 0.0 2.6 0.00 0.14 0.00 89 1008.4
20260903130707 44 136 0.9 3.5 0.00 0.14 0.00 89 1008.4
20260903130159 44 136 1.7 3.5 0.00 0.14 0.00 90 1008.4
20260903125653 44 128 0.9 3.5 0.00 0.14 0.00 90 1008.4
20260903125147 44 129 0.0 2.6 0.00 0.14 0.00 89 1008.3
20260903124915 44 129 1.7 3.5 0.00 0.14 0.00 89 1008.3
20260903124135 45 129 1.7 3.5 0.00 0.14 0.00 89 1008.3
20260903123629 44 136 0.9 3.5 0.00 0.14 0.00 90 1008.3
20260903123124 44 158 0.0 1.7 0.00 0.14 0.00 90 1008.2
20260903122620 44 160 0.0 0.0 0.00 0.14 0.00 89 1008.2
20260903122112 44 160 0.0 0.0 0.00 0.14 0.00 89 1008.3
20260903121609 44 160 0.0 0.0 0.00 0.14 0.00 88 1008.3
20260903121059 44 160 0.0 0.0 0.00 0.14 0.00 87 1008.3
20260903120553 44 160 0.0 0.0 0.00 0.14 0.00 86 1008.3
20260903120047 44 160 0.0 0.0 0.00 0.14 0.00 86 1008.3
20260903115542 45 159 0.0 0.0 0.00 0.14 0.00 85 1008.3
20260903115035 45 159 0.0 0.0 0.00 0.14 0.00 85 1008.3
20260903114529 45 159 0.0 0.0 0.00 0.14 0.00 86 1008.3
20260903114024 45 159 0.0 3.5 0.00 0.14 0.00 86 1008.4
20260903113517 45 159 0.0 3.5 0.00 0.14 0.00 86 1008.4
20260903113011 45 278 0.0 1.7 0.00 0.14 0.00 86 1008.3
20260903112505 45 279 0.0 0.0 0.00 0.14 0.00 86 1008.4
20260903111959 45 279 0.0 0.0 0.00 0.14 0.00 86 1008.4
20260903111453 45 279 0.0 0.9 0.00 0.14 0.00 86 1008.3
20260903110948 45 279 0.0 0.9 0.00 0.14 0.00 85 1008.3
20260903110441 46 281 0.0 0.0 0.00 0.14 0.00 85 1008.3
20260903105938 46 281 0.0 0.0 0.00 0.14 0.00 85 1008.4
20260903105440 46 281 0.0 0.0 0.00 0.14 0.00 85 1008.4
20260903104937 46 280 0.0 0.0 0.00 0.14 0.00 85 1008.3
20260903104436 46 281 0.0 0.9 0.00 0.14 0.00 85 1008.4
20260903103934 46 281 0.0 0.9 0.00 0.14 0.00 85 1008.5
20260903103431 46 281 0.0 0.9 0.00 0.14 0.00 84 1008.4
20260903102929 46 281 0.0 0.0 0.00 0.14 0.00 84 1008.5
20260903102427 46 281 0.0 0.0 0.00 0.14 0.00 84 1008.4
20260903101935 46 281 0.0 0.0 0.00 0.14 0.00 84 1008.4
20260903101431 46 281 0.0 0.0 0.00 0.14 0.00 84 1008.4
20260903100926 46 281 0.0 0.0 0.00 0.14 0.00 84 1008.4
20260903100424 47 281 0.0 0.0 0.00 0.14 0.00 83 1008.5
20260903095921 47 281 0.0 0.0 0.00 0.14 0.00 83 1008.4
20260903095418 47 281 0.0 0.0 0.00 0.14 0.00 83 1008.4
20260903094917 47 281 0.0 0.0 0.00 0.14 0.00 82 1008.3
20260903094417 47 281 0.0 0.0 0.00 0.14 0.00 82 1008.3
20260903093917 48 281 0.0 0.0 0.00 0.14 0.00 82 1008.2
20260903093417 48 281 0.0 0.9 0.00 0.14 0.00 82 1008.2
20260903092912 48 281 0.0 0.9 0.00 0.14 0.00 82 1008.2
20260903092639 48 281 0.0 0.0 0.00 0.14 0.00 81 1008.2
20260903091913 49 281 0.0 1.7 0.00 0.14 0.00 81 1008.3
20260903091412 49 281 0.0 1.7 0.00 0.14 0.00 80 1008.2
20260903091145 49 279 0.0 1.7 0.00 0.14 0.00 80 1008.4
20260903090414 49 279 0.0 1.7 0.00 0.14 0.00 79 1008.3